This is the latest recevied weather packets stored in our database for station/object W4ZHA. If no packets are shown the sender has not sent any weather packets the latest 10 day(s).
| Time | Temp. | Humidity | Pressure | Rain* | Wind** | Luminosity | Snow |
|---|---|---|---|---|---|---|---|
| 1777932026 | 25° C | 46% | 1012.7 hPa | 0 mm | - | 393 W/m² | - |
| 1777931723 | 25° C | 46% | 1012.7 hPa | 0 mm | - | 117 W/m² | - |
| 1777931420 | 25.56° C | 45% | 1012.7 hPa | 0 mm | - | 416 W/m² | - |
| 1777931116 | 25.56° C | 45% | 1012.7 hPa | 0 mm | - | 396 W/m² | - |
| 1777930812 | 26.67° C | 45% | 1012.7 hPa | 0 mm | - | 411 W/m² | - |
| 1777930509 | 26.11° C | 45% | 1012.7 hPa | 0 mm | - | 394 W/m² | - |
| 1777930207 | 25.56° C | 45% | 1012.7 hPa | 0 mm | - | 292 W/m² | - |
| 1777929902 | 25° C | 45% | 1012.7 hPa | 0 mm | - | 313 W/m² | - |
| 1777929600 | 25.56° C | 45% | 1013 hPa | 0 mm | - | 269 W/m² | - |
| 1777929296 | 25.56° C | 45% | 1012.7 hPa | 0 mm | - | 185 W/m² | - |
| 1777928994 | 27.22° C | 45% | 1012.7 hPa | 0 mm | - | 324 W/m² | - |
| 1777928690 | 26.11° C | 45% | 1013 hPa | 0 mm | - | 369 W/m² | - |
| 1777928387 | 25.56° C | 45% | 1013 hPa | 0 mm | - | 373 W/m² | - |
| 1777928085 | 25.56° C | 45% | 1013 hPa | 0 mm | - | 367 W/m² | - |
| 1777927783 | 26.67° C | 45% | 1013 hPa | 0 mm | - | 436 W/m² | - |
| 1777927481 | 26.67° C | 45% | 1013 hPa | 0 mm | - | 405 W/m² | - |
| 1777927180 | 26.11° C | 45% | 1013.4 hPa | 0 mm | - | 446 W/m² | - |
| 1777926877 | 26.67° C | 45% | 1013 hPa | 0 mm | - | 488 W/m² | - |
| 1777926573 | 26.67° C | 45% | 1013.4 hPa | 0 mm | - | 498 W/m² | - |
| 1777926270 | 26.67° C | 45% | 1013.4 hPa | 0 mm | - | 400 W/m² | - |
| 1777925966 | 26.67° C | 45% | 1013.4 hPa | 0 mm | - | 467 W/m² | - |
| 1777925664 | 25.56° C | 45% | 1013.8 hPa | 0 mm | - | 461 W/m² | - |
| 1777925361 | 25.56° C | 45% | 1013.4 hPa | 0 mm | - | 279 W/m² | - |
| 1777925058 | 25.56° C | 45% | 1013.8 hPa | 0 mm | - | 445 W/m² | - |
| 1777924755 | 25.56° C | 45% | 1013.8 hPa | 0 mm | - | 434 W/m² | - |
* Rain latest hour (hover to see other rain measurements)
** Current wind speed in m/s (hover to see current wind gust speed)